Tracking 19193 objects as of 23-Jun-2018
HD Live streaming from Space Station
objects crossing your sky now

FENGYUN 1C DEB

Track FENGYUN 1C DEB now!
10-day predictions


NORAD ID: 31848
Int'l Code: 1999-025CJN
Perigee: 573.1 km
Apogee: 768.9 km
Inclination: 96.7 °
Period: 98.0 minutes
Semi major axis: 7042 km
RCS: 0.0179 m2 (small)
Launch date: May 10, 1999
Source: People's Republic of China (PRC)
Launch site: Taiyaun Space Center, China (TSC)

Note: This is SATELLITE DEBRIS
aabbcc
Your satellite tracking list
Your tracking list is empty




NASA's NSSDC Master Catalog

Two Line Element Set (TLE):
1 31848U 99025CJN 18173.39734682 +.00000680 +00000-0 +10581-3 0  9993
2 31848 096.7132 148.0158 0139045 176.0506 184.1837 14.69115733587820
Source of the keplerian elements: AFSPC